User: anonymous   Login
Location: Platte
(43.3870°N, 98.8440°W)
Time: 18:34:05
(UTC-06:00)
Language:

Landsat 7 - Orbit

View from above orbital plane
View from above orbital plane
View from above satellite
View from above satellite

Ground track
Ground track

The orbit data is extracted from the following two-line orbital elements,

1 25682U 99020A   15059.43222493  .00000293  00000-0  75057-4 0  9994
2 25682 098.2297 130.7215 0001375 085.4878 274.6486 14.57103519844309
Epoch (UTC): 28 February 2015 10:22:24
Eccentricity: 0.0001375
inclination: 98.2297°
perigee height: 701 km
apogee height: 703 km
right ascension of ascending node: 130.7215°
argument of perigee: 85.4878°
revolutions per day: 14.57103519
mean anomaly at epoch: 274.6486°
orbit number at epoch: 84430

The dashed part of the orbit path shows where the satellite is in the earth's shadow,  

DLR